WTB27M KJFK-LOWW

Flight info

Callsign WTB27M
Flight time N/A
Altitude 36000
Route DIXIE Y481 POPPN LACKS JOBOC 4160N 4250N 4340N 4330N 4320N MUDOS ROXER NOLSA MARIO SINDO PIVUS DIBER NETUP STP RAPED PIGOS EKSID NOSTA LUKIM MALUG ARALD ABTAN
Aircraft A346/H-SDE2E3FGHIJ3J4J5M1RWXY/LB1D1

Departure

Time N/A
Airport John F. Kennedy International Airport (KJFK)

Arrival

Time 2026-04-25 22:48
Airport Vienna International Airport (LOWW)
Time Latitude Longitude Altitude Speed Heading
2026-04-25 20:12 43.17194 -7.01769 36166 ft 477 kts 98°
2026-04-25 20:12 43.16283 -6.94310 36164 ft 477 kts 98°
2026-04-25 20:13 43.14994 -6.83830 36177 ft 477 kts 98°
2026-04-25 20:13 43.13882 -6.74879 36161 ft 475 kts 98°
2026-04-25 20:14 43.12769 -6.65948 36168 ft 475 kts 98°
2026-04-25 20:14 43.11649 -6.57022 36170 ft 475 kts 98°
2026-04-25 20:15 43.10521 -6.48092 36177 ft 475 kts 98°
2026-04-25 20:15 43.09396 -6.39252 36180 ft 473 kts 98°
2026-04-25 20:16 43.08259 -6.30370 36168 ft 473 kts 98°
2026-04-25 20:16 43.07116 -6.21496 36178 ft 473 kts 98°
2026-04-25 20:17 43.05965 -6.12627 36177 ft 473 kts 98°
2026-04-25 20:17 43.04809 -6.03770 36186 ft 471 kts 98°
2026-04-25 20:18 43.03653 -5.94970 36186 ft 470 kts 98°
2026-04-25 20:18 43.02491 -5.86171 36181 ft 470 kts 98°
2026-04-25 20:19 43.01322 -5.77370 36184 ft 470 kts 99°
2026-04-25 20:19 43.00147 -5.68583 36193 ft 469 kts 99°
2026-04-25 20:20 42.98966 -5.59807 36192 ft 469 kts 99°
2026-04-25 20:20 42.97779 -5.51042 36189 ft 469 kts 99°
2026-04-25 20:21 42.96584 -5.42271 36184 ft 469 kts 99°
2026-04-25 20:21 42.95383 -5.33510 36185 ft 469 kts 99°
2026-04-25 20:22 42.94580 -5.27639 36195 ft 470 kts 99°
2026-04-25 20:22 42.92959 -5.15951 36202 ft 471 kts 100°
2026-04-25 20:23 42.91730 -5.07161 36202 ft 471 kts 100°
2026-04-25 20:23 42.90501 -4.98389 36199 ft 471 kts 100°
2026-04-25 20:24 42.89683 -4.92572 36203 ft 471 kts 101°
2026-04-25 20:24 42.88016 -4.80821 36203 ft 471 kts 101°
2026-04-25 20:25 42.86760 -4.72040 36207 ft 471 kts 101°
2026-04-25 20:25 42.85508 -4.63325 36210 ft 471 kts 101°
2026-04-25 20:26 42.84240 -4.54542 36214 ft 471 kts 101°
2026-04-25 20:26 42.82958 -4.45706 36213 ft 472 kts 101°
2026-04-25 20:27 42.81682 -4.36976 36216 ft 472 kts 101°
2026-04-25 20:27 42.80391 -4.28195 36221 ft 472 kts 101°
2026-04-25 20:28 42.79094 -4.19419 36219 ft 472 kts 101°
2026-04-25 20:28 42.77791 -4.10645 36211 ft 472 kts 102°
2026-04-25 20:29 42.76481 -4.01869 36211 ft 472 kts 102°
2026-04-25 20:29 42.75166 -3.93118 36216 ft 472 kts 102°
2026-04-25 20:30 42.73842 -3.84351 36218 ft 472 kts 102°
2026-04-25 20:30 42.72514 -3.75578 36216 ft 474 kts 102°
2026-04-25 20:31 42.71168 -3.66777 36207 ft 474 kts 102°
2026-04-25 20:31 42.69818 -3.57988 36208 ft 474 kts 102°
2026-04-25 20:32 42.68462 -3.49207 36207 ft 474 kts 102°
2026-04-25 20:32 42.67101 -3.40423 36207 ft 475 kts 103°
2026-04-25 20:33 42.65726 -3.31603 36207 ft 477 kts 103°
2026-04-25 20:33 42.64809 -3.25754 36200 ft 477 kts 103°
2026-04-25 20:34 42.62947 -3.13944 36201 ft 477 kts 103°
2026-04-25 20:34 42.61550 -3.05131 36206 ft 477 kts 103°
2026-04-25 20:35 42.60146 -2.96316 36201 ft 477 kts 103°
2026-04-25 20:35 42.58732 -2.87491 36204 ft 477 kts 103°
2026-04-25 20:36 42.57313 -2.78681 36194 ft 477 kts 103°
2026-04-25 20:36 42.55892 -2.69897 36178 ft 476 kts 103°
2026-04-25 20:37 42.54461 -2.61106 36175 ft 476 kts 103°
2026-04-25 20:37 42.53029 -2.52346 36162 ft 476 kts 103°
2026-04-25 20:38 42.51589 -2.43581 36155 ft 476 kts 103°
2026-04-25 20:38 42.50141 -2.34818 36156 ft 476 kts 103°
2026-04-25 20:39 42.48687 -2.26064 36158 ft 475 kts 103°
2026-04-25 20:39 42.47721 -2.20268 36155 ft 475 kts 103°
2026-04-25 20:40 42.46009 -2.10039 36158 ft 475 kts 103°
2026-04-25 20:40 42.44539 -2.01301 36160 ft 475 kts 103°
2026-04-25 20:41 42.43062 -1.92563 36154 ft 476 kts 103°
2026-04-25 20:41 42.41869 -1.83742 36149 ft 475 kts 100°
2026-04-25 20:42 42.40777 -1.74907 36138 ft 476 kts 100°
2026-04-25 20:42 42.39678 -1.66064 36139 ft 476 kts 100°
2026-04-25 20:43 42.38570 -1.57242 36137 ft 474 kts 100°
2026-04-25 20:43 42.37458 -1.48445 36134 ft 473 kts 100°
2026-04-25 20:44 42.36344 -1.39688 36135 ft 472 kts 100°
2026-04-25 20:44 42.35222 -1.30934 36123 ft 472 kts 100°
2026-04-25 20:45 42.34094 -1.22194 36124 ft 472 kts 100°
2026-04-25 20:45 42.32956 -1.13421 36124 ft 471 kts 101°
2026-04-25 20:46 42.31826 -1.04743 36125 ft 471 kts 101°
2026-04-25 20:46 42.30680 -0.96029 36125 ft 470 kts 101°
2026-04-25 20:47 42.29527 -0.87315 36123 ft 470 kts 101°
2026-04-25 20:47 42.28370 -0.78611 36123 ft 470 kts 101°
2026-04-25 20:48 42.27207 -0.69901 36115 ft 470 kts 101°
2026-04-25 20:48 42.26036 -0.61206 36113 ft 470 kts 101°
2026-04-25 20:49 42.24860 -0.52517 36125 ft 470 kts 101°
2026-04-25 20:49 42.23677 -0.43827 36127 ft 470 kts 101°
2026-04-25 20:50 42.22488 -0.35142 36131 ft 470 kts 101°
2026-04-25 20:50 42.21334 -0.26454 36134 ft 470 kts 99°
2026-04-25 20:51 42.20707 -0.17653 36130 ft 471 kts 94°
2026-04-25 20:51 42.20345 -0.08823 36131 ft 471 kts 94°
2026-04-25 20:52 42.20044 -0.01488 36130 ft 471 kts 94°
2026-04-25 20:52 42.19606 0.08825 36123 ft 470 kts 94°
2026-04-25 20:53 42.19222 0.17626 36131 ft 469 kts 94°
2026-04-25 20:53 42.18833 0.26424 36130 ft 469 kts 94°
2026-04-25 20:54 42.18438 0.35172 36133 ft 469 kts 94°
2026-04-25 20:54 42.18032 0.44027 36136 ft 470 kts 94°
2026-04-25 20:55 42.17623 0.52766 36143 ft 470 kts 94°
2026-04-25 20:55 42.17206 0.61560 36148 ft 470 kts 94°
2026-04-25 20:56 42.16781 0.70357 36147 ft 470 kts 94°
2026-04-25 20:56 42.16349 0.79155 36156 ft 470 kts 94°
2026-04-25 20:57 42.15911 0.87959 36157 ft 470 kts 94°
2026-04-25 20:57 42.15466 0.96770 36152 ft 470 kts 94°
2026-04-25 20:58 42.15016 1.05556 36146 ft 470 kts 94°
2026-04-25 20:58 42.14558 1.14366 36143 ft 470 kts 94°
2026-04-25 20:59 42.14090 1.23214 36364 ft 475 kts 94°
2026-04-25 20:59 42.13854 1.27647 36727 ft 473 kts 94°
2026-04-25 20:59 42.13617 1.32057 37056 ft 471 kts 95°
2026-04-25 21:00 42.13342 1.36467 37337 ft 471 kts 96°
2026-04-25 21:00 42.13240 1.37951 37418 ft 471 kts 96°
2026-04-25 21:00 42.12386 1.49702 37932 ft 474 kts 96°
2026-04-25 21:01 42.12063 1.54142 38107 ft 475 kts 96°
2026-04-25 21:01 42.11416 1.63001 38162 ft 474 kts 96°
2026-04-25 21:02 42.10771 1.71855 38161 ft 474 kts 96°
2026-04-25 21:02 42.10121 1.80697 38160 ft 474 kts 96°
2026-04-25 21:03 42.09462 1.89547 38152 ft 474 kts 96°
2026-04-25 21:03 42.08802 1.98333 38153 ft 474 kts 96°
2026-04-25 21:04 42.08127 2.07221 38136 ft 474 kts 96°
2026-04-25 21:04 42.07448 2.16062 38136 ft 474 kts 96°
2026-04-25 21:05 42.06763 2.24902 38146 ft 474 kts 96°
2026-04-25 21:05 42.06070 2.33741 38133 ft 474 kts 96°
2026-04-25 21:06 42.05370 2.42589 38117 ft 475 kts 96°
2026-04-25 21:06 42.04669 2.51372 38113 ft 475 kts 96°
2026-04-25 21:07 42.03956 2.60211 38097 ft 475 kts 96°
2026-04-25 21:07 42.03236 2.69049 38105 ft 475 kts 96°
2026-04-25 21:08 42.02510 2.77887 38099 ft 474 kts 97°
2026-04-25 21:08 42.01776 2.86721 38087 ft 474 kts 97°
2026-04-25 21:09 42.00664 2.99959 38096 ft 474 kts 97°
2026-04-25 21:09 41.99916 3.08767 38101 ft 475 kts 97°
2026-04-25 21:10 41.99159 3.17597 38100 ft 475 kts 97°
2026-04-25 21:10 41.98395 3.26432 38102 ft 475 kts 97°
2026-04-25 21:11 41.97624 3.35260 38103 ft 475 kts 97°
2026-04-25 21:11 41.96851 3.44033 38110 ft 475 kts 97°
2026-04-25 21:12 41.96067 3.52859 38121 ft 475 kts 97°
2026-04-25 21:12 41.95405 3.60246 38108 ft 475 kts 97°
2026-04-25 21:13 41.94479 3.70502 38107 ft 475 kts 97°
2026-04-25 21:13 41.93675 3.79309 38107 ft 475 kts 97°
2026-04-25 21:14 41.93410 3.88187 38119 ft 476 kts 87°
2026-04-25 21:14 41.94276 3.97023 38127 ft 476 kts 77°
2026-04-25 21:15 41.96257 4.05518 38112 ft 476 kts 66°
2026-04-25 21:15 41.98915 4.13678 38115 ft 476 kts 65°
2026-04-25 21:16 42.02147 4.21446 38113 ft 475 kts 57°
2026-04-25 21:16 42.05635 4.29010 38128 ft 475 kts 57°
2026-04-25 21:17 42.09098 4.36594 38110 ft 475 kts 57°
2026-04-25 21:17 42.12537 4.44204 38112 ft 475 kts 57°
2026-04-25 21:18 42.15967 4.51838 38110 ft 476 kts 57°
2026-04-25 21:18 42.19389 4.59482 38123 ft 476 kts 58°
2026-04-25 21:19 42.22800 4.67126 38124 ft 475 kts 58°
2026-04-25 21:19 42.26202 4.74765 38126 ft 475 kts 58°
2026-04-25 21:20 42.28479 4.79886 38122 ft 475 kts 58°
2026-04-25 21:20 42.33003 4.90095 38111 ft 476 kts 58°
2026-04-25 21:21 42.36397 4.97778 38113 ft 475 kts 58°
2026-04-25 21:21 42.39773 5.05436 38112 ft 473 kts 58°
2026-04-25 21:22 42.43145 5.13106 38110 ft 473 kts 58°
2026-04-25 21:22 42.46509 5.20778 38111 ft 473 kts 58°
2026-04-25 21:23 42.49870 5.28460 38116 ft 473 kts 58°
2026-04-25 21:23 42.53222 5.36144 38114 ft 472 kts 58°
2026-04-25 21:24 42.56561 5.43819 38109 ft 471 kts 58°
2026-04-25 21:24 42.59893 5.51497 38106 ft 472 kts 58°
2026-04-25 21:25 42.63219 5.59182 38106 ft 472 kts 58°
2026-04-25 21:25 42.66544 5.66886 38109 ft 472 kts 58°
2026-04-25 21:26 42.69857 5.74587 38114 ft 471 kts 58°
2026-04-25 21:26 42.72604 5.80982 38112 ft 470 kts 58°
2026-04-25 21:27 42.75897 5.88670 38110 ft 470 kts 58°
2026-04-25 21:27 42.79722 5.97620 38111 ft 470 kts 58°
2026-04-25 21:28 42.83006 6.05324 38107 ft 470 kts 58°
2026-04-25 21:28 42.85750 6.11787 38103 ft 470 kts 58°
2026-04-25 21:29 42.89028 6.19516 38093 ft 470 kts 58°
2026-04-25 21:29 42.92301 6.27255 38101 ft 471 kts 58°
2026-04-25 21:30 42.95569 6.35006 38097 ft 470 kts 58°
2026-04-25 21:30 42.98279 6.41447 38098 ft 470 kts 58°
2026-04-25 21:31 43.02083 6.50511 38098 ft 470 kts 58°
2026-04-25 21:31 43.05335 6.58284 38102 ft 470 kts 59°
2026-04-25 21:32 43.08582 6.66063 38098 ft 471 kts 59°
2026-04-25 21:32 43.11823 6.73852 38101 ft 471 kts 59°
2026-04-25 21:33 43.15063 6.81661 38098 ft 471 kts 59°
2026-04-25 21:33 43.18298 6.89480 38104 ft 471 kts 59°
2026-04-25 21:34 43.21529 6.97310 38103 ft 471 kts 59°
2026-04-25 21:34 43.24754 7.05140 38103 ft 471 kts 59°
2026-04-25 21:35 43.27973 7.12986 38100 ft 471 kts 59°
2026-04-25 21:35 43.31188 7.20835 38099 ft 471 kts 59°
2026-04-25 21:36 43.34409 7.28722 38101 ft 471 kts 59°
2026-04-25 21:36 43.37615 7.36596 38102 ft 471 kts 59°
2026-04-25 21:37 43.40275 7.43141 38106 ft 471 kts 59°
2026-04-25 21:37 43.44013 7.52371 38101 ft 471 kts 59°
2026-04-25 21:38 43.47201 7.60266 38105 ft 471 kts 59°
2026-04-25 21:38 43.50365 7.68126 38106 ft 472 kts 59°
2026-04-25 21:39 43.53544 7.76040 38107 ft 472 kts 59°
2026-04-25 21:39 43.56718 7.83966 38110 ft 472 kts 59°
2026-04-25 21:40 43.59909 7.91958 38110 ft 472 kts 59°
2026-04-25 21:40 43.63055 7.99855 38107 ft 472 kts 59°
2026-04-25 21:41 43.66216 8.07813 38111 ft 473 kts 60°
2026-04-25 21:41 43.69374 8.15786 38112 ft 473 kts 60°
2026-04-25 21:42 43.72529 8.23773 38111 ft 473 kts 60°
2026-04-25 21:42 43.75676 8.31765 38112 ft 473 kts 60°
2026-04-25 21:43 43.78836 8.39802 38109 ft 473 kts 58°
2026-04-25 21:43 43.82931 8.46840 38117 ft 470 kts 42°
2026-04-25 21:44 43.87669 8.53088 38114 ft 469 kts 41°
2026-04-25 21:45 43.94761 8.62466 38117 ft 469 kts 42°
2026-04-25 21:45 43.99466 8.68758 38117 ft 469 kts 42°
2026-04-25 21:46 44.04165 8.75071 38115 ft 470 kts 42°
2026-04-25 21:46 44.08865 8.81403 38120 ft 470 kts 42°
2026-04-25 21:47 44.13559 8.87743 38117 ft 470 kts 42°
2026-04-25 21:47 44.18251 8.94096 38117 ft 470 kts 42°
2026-04-25 21:48 44.22938 9.00457 38116 ft 470 kts 42°
2026-04-25 21:48 44.27618 9.06826 38118 ft 470 kts 42°
2026-04-25 21:49 44.32303 9.13215 38112 ft 471 kts 42°
2026-04-25 21:49 44.36991 9.19621 38112 ft 471 kts 42°
2026-04-25 21:50 44.41671 9.26032 38113 ft 471 kts 42°
2026-04-25 21:50 44.46351 9.32458 38117 ft 471 kts 42°
2026-04-25 21:51 44.51025 9.38893 38110 ft 471 kts 42°
2026-04-25 21:51 44.55699 9.45342 38111 ft 471 kts 42°
2026-04-25 21:52 44.60338 9.51761 38106 ft 472 kts 42°
2026-04-25 21:52 44.65013 9.58244 38100 ft 472 kts 42°
2026-04-25 21:53 44.69686 9.64737 38087 ft 472 kts 42°
2026-04-25 21:53 44.74353 9.71237 38073 ft 472 kts 42°
2026-04-25 21:54 44.79018 9.77753 38072 ft 472 kts 42°
2026-04-25 21:54 44.83677 9.84273 38055 ft 472 kts 42°
2026-04-25 21:55 44.88330 9.90803 38043 ft 472 kts 42°
2026-04-25 21:55 44.92979 9.97343 38034 ft 472 kts 42°
2026-04-25 21:56 44.97622 10.03891 38021 ft 471 kts 42°
2026-04-25 21:56 45.02261 10.10448 38015 ft 471 kts 42°
2026-04-25 21:57 45.06896 10.17014 38025 ft 471 kts 42°
2026-04-25 21:57 45.11524 10.23586 38015 ft 471 kts 42°
2026-04-25 21:58 45.16150 10.30177 38015 ft 470 kts 42°
2026-04-25 21:58 45.20766 10.36763 38032 ft 470 kts 42°
2026-04-25 21:59 45.25374 10.43354 38037 ft 470 kts 42°
2026-04-25 21:59 45.29982 10.49962 38051 ft 471 kts 42°
2026-04-25 22:00 45.36888 10.59901 38034 ft 470 kts 42°
2026-04-25 22:00 45.41485 10.66534 38024 ft 470 kts 42°
2026-04-25 22:01 45.46046 10.73131 38022 ft 470 kts 42°
2026-04-25 22:01 45.49893 10.78708 38018 ft 471 kts 42°
2026-04-25 22:02 45.55228 10.86462 38017 ft 471 kts 42°
2026-04-25 22:02 45.59811 10.93142 38021 ft 471 kts 42°
2026-04-25 22:03 45.64391 10.99833 38054 ft 471 kts 42°
2026-04-25 22:03 45.68970 11.06539 38053 ft 471 kts 43°
2026-04-25 22:04 45.73521 11.13311 38064 ft 473 kts 47°
2026-04-25 22:04 45.77294 11.21101 38081 ft 477 kts 54°
2026-04-25 22:05 45.80887 11.29082 38084 ft 476 kts 54°
2026-04-25 22:05 45.84523 11.37096 38109 ft 476 kts 54°
2026-04-25 22:06 45.88152 11.45057 38096 ft 476 kts 54°
2026-04-25 22:06 45.91779 11.53014 38094 ft 475 kts 54°
2026-04-25 22:07 45.94794 11.59641 38092 ft 476 kts 54°
2026-04-25 22:07 45.99023 11.68963 38068 ft 476 kts 54°
2026-04-25 22:08 46.02632 11.76942 38062 ft 476 kts 54°
2026-04-25 22:08 46.06246 11.84954 38058 ft 476 kts 54°
2026-04-25 22:09 46.09850 11.92968 38064 ft 476 kts 54°
2026-04-25 22:09 46.13441 12.00974 38056 ft 476 kts 54°
2026-04-25 22:10 46.17044 12.09032 38048 ft 478 kts 54°
2026-04-25 22:10 46.20645 12.17105 38054 ft 478 kts 54°
2026-04-25 22:11 46.24217 12.25138 38046 ft 478 kts 54°
2026-04-25 22:11 46.27801 12.33225 38050 ft 478 kts 54°
2026-04-25 22:12 46.31411 12.41388 38069 ft 477 kts 54°
2026-04-25 22:12 46.33774 12.46743 38053 ft 476 kts 54°
2026-04-25 22:13 46.38516 12.57538 38066 ft 478 kts 54°
2026-04-25 22:13 46.42084 12.65680 38063 ft 478 kts 54°
2026-04-25 22:14 46.45052 12.72466 38068 ft 479 kts 54°
2026-04-25 22:14 46.48635 12.80683 38070 ft 478 kts 54°
2026-04-25 22:15 46.52162 12.88798 38066 ft 478 kts 54°
2026-04-25 22:16 46.57476 13.01068 38071 ft 478 kts 54°
2026-04-25 22:16 46.60942 13.09326 38056 ft 481 kts 61°
2026-04-25 22:17 46.63516 13.18378 38086 ft 483 kts 66°
2026-04-25 22:17 46.65935 13.27501 38074 ft 482 kts 66°
2026-04-25 22:18 46.68379 13.36606 38074 ft 482 kts 65°
2026-04-25 22:18 46.70836 13.45708 38059 ft 483 kts 65°
2026-04-25 22:19 46.73295 13.54826 38082 ft 483 kts 65°
2026-04-25 22:19 46.75746 13.63934 38064 ft 482 kts 65°
2026-04-25 22:20 46.78194 13.73054 38080 ft 481 kts 65°
2026-04-25 22:20 46.80627 13.82161 38074 ft 481 kts 65°
2026-04-25 22:21 46.83054 13.91285 38080 ft 481 kts 66°
2026-04-25 22:21 46.85469 14.00401 38081 ft 481 kts 65°
2026-04-25 22:22 46.87877 14.09533 38068 ft 480 kts 65°
2026-04-25 22:22 46.90279 14.18663 38065 ft 480 kts 65°
2026-04-25 22:23 46.92672 14.27791 37678 ft 478 kts 66°
2026-04-25 22:23 46.93858 14.32333 37389 ft 475 kts 66°
2026-04-25 22:23 46.95028 14.36826 37052 ft 471 kts 66°
2026-04-25 22:23 46.96192 14.41306 36635 ft 468 kts 66°
2026-04-25 22:24 46.97350 14.45763 36139 ft 468 kts 66°
2026-04-25 22:24 46.98507 14.50223 35625 ft 468 kts 66°
2026-04-25 22:24 46.99661 14.54678 35085 ft 468 kts 66°
2026-04-25 22:24 47.00814 14.59143 34544 ft 468 kts 66°
2026-04-25 22:25 47.01965 14.63609 34007 ft 468 kts 66°
2026-04-25 22:25 47.03112 14.68071 33401 ft 467 kts 66°
2026-04-25 22:25 47.04254 14.72526 32823 ft 466 kts 66°
2026-04-25 22:25 47.05396 14.76986 32212 ft 466 kts 66°
2026-04-25 22:26 47.06537 14.81449 31609 ft 466 kts 66°
2026-04-25 22:26 47.07675 14.85907 31014 ft 467 kts 66°
2026-04-25 22:26 47.08814 14.90379 30433 ft 467 kts 66°
2026-04-25 22:26 47.09933 14.94782 29782 ft 467 kts 66°
2026-04-25 22:27 47.11070 14.99256 29087 ft 468 kts 67°
2026-04-25 22:27 47.12207 15.03738 28343 ft 470 kts 67°
2026-04-25 22:27 47.13349 15.08256 27566 ft 473 kts 67°
2026-04-25 22:27 47.14508 15.12853 27003 ft 471 kts 68°
2026-04-25 22:28 47.15627 15.17304 26492 ft 469 kts 68°
2026-04-25 22:28 47.16751 15.21785 26026 ft 465 kts 68°
2026-04-25 22:28 47.17867 15.26239 25594 ft 462 kts 68°
2026-04-25 22:28 47.18970 15.30652 25173 ft 458 kts 68°
2026-04-25 22:29 47.20066 15.35044 24756 ft 455 kts 68°
2026-04-25 22:29 47.21166 15.39460 24320 ft 452 kts 68°
2026-04-25 22:29 47.22232 15.43743 23915 ft 450 kts 68°
2026-04-25 22:30 47.24380 15.52414 22989 ft 445 kts 68°
2026-04-25 22:30 47.25422 15.56627 22549 ft 441 kts 68°
2026-04-25 22:30 47.26467 15.60860 22160 ft 438 kts 67°
2026-04-25 22:30 47.27169 15.63706 21883 ft 436 kts 67°
2026-04-25 22:31 47.28530 15.69233 21360 ft 432 kts 67°
2026-04-25 22:31 47.29554 15.73397 20965 ft 429 kts 68°
2026-04-25 22:31 47.30682 15.77446 20528 ft 424 kts 57°
2026-04-25 22:31 47.32457 15.80977 20248 ft 435 kts 46°
2026-04-25 22:32 47.34478 15.84313 19950 ft 435 kts 44°
2026-04-25 22:32 47.36503 15.87607 19463 ft 432 kts 44°
2026-04-25 22:32 47.38500 15.90923 18890 ft 431 kts 45°
2026-04-25 22:32 47.40459 15.94251 18409 ft 428 kts 45°
2026-04-25 22:33 47.42394 15.97594 17865 ft 426 kts 46°
2026-04-25 22:33 47.44299 16.00920 17331 ft 422 kts 46°
2026-04-25 22:33 47.46179 16.04233 16823 ft 420 kts 46°
2026-04-25 22:33 47.48047 16.07538 16297 ft 417 kts 46°
2026-04-25 22:34 47.49901 16.10817 15809 ft 414 kts 46°
2026-04-25 22:34 47.51739 16.14071 15343 ft 410 kts 46°
2026-04-25 22:34 47.53562 16.17304 14850 ft 407 kts 46°
2026-04-25 22:34 47.55393 16.20558 14365 ft 404 kts 46°
2026-04-25 22:35 47.57188 16.23754 13867 ft 402 kts 46°
2026-04-25 22:35 47.58971 16.26933 13336 ft 399 kts 47°
2026-04-25 22:35 47.60740 16.30089 12810 ft 396 kts 47°
2026-04-25 22:35 47.62490 16.33217 12320 ft 392 kts 47°
2026-04-25 22:36 47.64225 16.36320 11833 ft 389 kts 47°
2026-04-25 22:36 47.65940 16.39399 11334 ft 385 kts 47°
2026-04-25 22:36 47.67643 16.42459 10862 ft 382 kts 47°
2026-04-25 22:36 47.69328 16.45489 10459 ft 377 kts 47°
2026-04-25 22:37 47.70973 16.48452 10282 ft 365 kts 47°
2026-04-25 22:37 47.72566 16.51324 9970 ft 354 kts 47°
2026-04-25 22:37 47.74099 16.54087 9658 ft 339 kts 47°
2026-04-25 22:37 47.75565 16.56730 9250 ft 323 kts 47°
2026-04-25 22:38 47.76937 16.59206 8970 ft 307 kts 47°
2026-04-25 22:38 47.78261 16.61595 8659 ft 292 kts 47°
2026-04-25 22:38 47.79534 16.63895 8191 ft 285 kts 47°
2026-04-25 22:38 47.80789 16.66154 7636 ft 282 kts 47°
2026-04-25 22:39 47.82034 16.68404 7290 ft 279 kts 47°
2026-04-25 22:39 47.83264 16.70631 6958 ft 278 kts 47°
2026-04-25 22:39 47.84580 16.72719 6603 ft 274 kts 33°
2026-04-25 22:39 47.86167 16.74245 6316 ft 270 kts 26°
2026-04-25 22:40 47.87785 16.75642 5982 ft 268 kts 25°
2026-04-25 22:40 47.89403 16.77023 5644 ft 267 kts 25°
2026-04-25 22:40 47.91004 16.78403 5350 ft 265 kts 25°
2026-04-25 22:40 47.92596 16.79791 5021 ft 264 kts 25°
2026-04-25 22:41 47.94171 16.81180 4740 ft 262 kts 25°
2026-04-25 22:41 47.95717 16.82561 4560 ft 255 kts 25°
2026-04-25 22:41 47.97216 16.83919 4382 ft 248 kts 25°
2026-04-25 22:41 47.98659 16.85245 4230 ft 240 kts 25°
2026-04-25 22:42 48.00061 16.86541 4049 ft 234 kts 25°
2026-04-25 22:42 48.01409 16.87798 3977 ft 221 kts 24°
2026-04-25 22:42 48.02745 16.88541 3975 ft 191 kts 355°
2026-04-25 22:42 48.03873 16.87997 3948 ft 160 kts 315°
2026-04-25 22:43 48.04288 16.86601 3948 ft 150 kts 276°
2026-04-25 22:43 48.04180 16.85035 3983 ft 152 kts 267°
2026-04-25 22:43 48.03982 16.83481 3981 ft 153 kts 265°
2026-04-25 22:43 48.03769 16.81920 3986 ft 152 kts 270°
2026-04-25 22:44 48.03810 16.80362 3868 ft 151 kts 285°
2026-04-25 22:44 48.04096 16.78838 3663 ft 153 kts 292°
2026-04-25 22:44 48.04492 16.77381 3455 ft 146 kts 297°
2026-04-25 22:44 48.04916 16.76048 3250 ft 139 kts 298°
2026-04-25 22:45 48.05339 16.74749 3064 ft 138 kts 298°
2026-04-25 22:45 48.05760 16.73458 2894 ft 139 kts 297°
2026-04-25 22:45 48.06183 16.72155 2739 ft 139 kts 297°
2026-04-25 22:45 48.06602 16.70858 2538 ft 138 kts 297°
2026-04-25 22:46 48.07021 16.69557 2371 ft 138 kts 296°
2026-04-25 22:46 48.07438 16.68268 2176 ft 137 kts 296°
2026-04-25 22:46 48.07851 16.66986 1981 ft 135 kts 297°
2026-04-25 22:46 48.08259 16.65729 1804 ft 134 kts 297°
2026-04-25 22:47 48.08664 16.64479 1629 ft 134 kts 296°
2026-04-25 22:47 48.09089 16.63196 1496 ft 140 kts 295°
2026-04-25 22:47 48.09502 16.61858 1297 ft 143 kts 296°
2026-04-25 22:47 48.09933 16.60480 1078 ft 150 kts 296°
2026-04-25 22:48 48.10404 16.59054 912 ft 153 kts 296°
2026-04-25 22:48 48.10871 16.57640 646 ft 148 kts 296°
2026-04-25 22:48 48.11277 16.56411 623 ft 104 kts 297°
2026-04-25 22:48 48.11499 16.55739 624 ft 43 kts 296°
2026-04-25 22:49 48.11601 16.55458 625 ft 26 kts 304°
2026-04-25 22:49 48.11720 16.55256 625 ft 23 kts 316°
2026-04-25 22:49 48.11821 16.55156 629 ft 0 kts 359°
2026-04-25 22:49 48.11826 16.55156 628 ft 1 kts
2026-04-25 22:50 48.11838 16.55163 627 ft 2 kts 37°
2026-04-25 22:50 48.11856 16.55251 620 ft 15 kts 91°
2026-04-25 22:50 48.11819 16.55408 624 ft 17 kts 114°
2026-04-25 22:50 48.11761 16.55583 629 ft 20 kts 117°
2026-04-25 22:51 48.11697 16.55780 623 ft 22 kts 115°
2026-04-25 22:51 48.11627 16.55997 626 ft 24 kts 116°
2026-04-25 22:51 48.11550 16.56229 627 ft 26 kts 116°
2026-04-25 22:51 48.11469 16.56477 629 ft 27 kts 115°
2026-04-25 22:52 48.11394 16.56713 628 ft 24 kts 116°
2026-04-25 22:52 48.11315 16.56949 624 ft 26 kts 116°
2026-04-25 22:52 48.11241 16.57177 627 ft 15 kts 116°
2026-04-25 22:52 48.11234 16.57247 625 ft 10 kts 69°
2026-04-25 22:53 48.11324 16.57338 624 ft 14 kts 26°
2026-04-25 22:53 48.11416 16.57404 629 ft 16 kts 26°
2026-04-25 22:53 48.11522 16.57475 622 ft 17 kts 34°
2026-04-25 22:53 48.11638 16.57537 624 ft 19 kts 351°
2026-04-25 22:54 48.11777 16.57482 629 ft 22 kts 345°
2026-04-25 22:54 48.11930 16.57419 628 ft 24 kts 345°
2026-04-25 22:54 48.12095 16.57349 629 ft 25 kts 343°
2026-04-25 22:54 48.12195 16.57243 628 ft 17 kts 298°
2026-04-25 22:55 48.12239 16.57163 623 ft 6 kts 335°
2026-04-25 22:55 48.12278 16.57180 625 ft 8 kts 24°
2026-04-25 22:55 48.12307 16.57200 626 ft 0 kts 25°